Maastricht, Netherlands

12:14 AM CEST on October 22, 2017 (GMT +0200)
Maastricht-Aachen

Weather History for EHBK - January, 2014

Change the Weather History Date:

Friday, January 17, 2014

  Actual Average Record
Temperature  
Mean Temperature 46 °F -  
Max Temperature 50 °F 41 °F 53 °F (2007)
Min Temperature 43 °F 31 °F 17 °F (2001)
Degree Days  
Heating Degree Days 18    
Moisture  
Dew Point 39 °F    
Average Humidity 71    
Maximum Humidity 87    
Minimum Humidity 54    
Precipitation  
Precipitation 0.00 in 0.07 in - ()
Sea Level Pressure  
Sea Level Pressure 29.50 in    
Wind  
Wind Speed 15 mph ()    
Max Wind Speed 20 mph    
Max Gust Speed -    
Visibility 6.9 miles    
Events Rain    
Averages and records for this station are not official NWS values.
T = Trace of Precipitation, MM = Missing Value Source: Averaged Metar Reports

Daily Weather History Graph

Daily Weather History Graph

Search for Another Location

Airport or City:

Trip Planner

Search our weather history database for the weather conditions in past years. The results will help you decide how hot, cold, wet, or windy it might be!

Date:

Astronomy

Jan. 17, 2014 Rise Set
Actual Time 8:31 AM CET 5:02 PM CET
Civil Twilight 7:54 AM CET 5:40 PM CET
Nautical Twilight 7:13 AM CET 6:21 PM CET
Astronomical Twilight 6:33 AM CET 7:00 PM CET
Moon 6:50 PM CET (1/17) 8:37 AM CET (1/17)
Length of Visible Light 9h 46m
Length of Day
8h 30m
Full, 99% of the Moon is Illuminated
Jan 17
Full
Jan 24
Last Quarter
Jan 30
New
Feb 6
First Quarter
Feb 15
Full

Hourly Weather History & Observations

Time (CET) Temp. Windchill Dew Point Humidity Pressure Visibility Wind Dir Wind Speed Gust Speed Precip Events Conditions
12:00 AM 46 °F - 41 °F 76% 29.49 in 28 mi SSW 20.1 mph - - Rain Rain
12:25 AM 46.4 °F 39.5 °F 41.0 °F 81% 29.47 in 6.2 mi SSW 17.3 mph - N/A   Mostly Cloudy
12:55 AM 44.6 °F 37.2 °F 41.0 °F 87% 29.47 in 6.2 mi SSW 17.3 mph - N/A   Partly Cloudy
1:00 AM 45 °F - 40 °F 76% 29.49 in 28 mi SSW 17.9 mph - -   Partly Cloudy
1:25 AM 44.6 °F 37.4 °F 39.2 °F 81% 29.47 in 6.2 mi SSW 16.1 mph - N/A   Unknown
1:55 AM 46.4 °F 40.1 °F 41.0 °F 81% 29.47 in 6.2 mi SSW 15.0 mph - N/A   Overcast
2:00 AM 46 °F - 40 °F 73% 29.49 in 28 mi SSW 15.7 mph - -   Overcast
2:25 AM 44.6 °F 37.2 °F 39.2 °F 81% 29.47 in 6.2 mi SSW 17.3 mph - N/A   Partly Cloudy
2:55 AM 44.6 °F 37.4 °F 39.2 °F 81% 29.47 in 6.2 mi SSW 16.1 mph - N/A   Mostly Cloudy
3:00 AM 45 °F - 40 °F 75% 29.50 in 28 mi South 15.7 mph - -   Partly Cloudy
3:25 AM 44.6 °F 37.8 °F 39.2 °F 81% 29.47 in 6.2 mi South 15.0 mph - N/A   Overcast
3:55 AM 46.4 °F 40.1 °F 39.2 °F 76% 29.47 in 6.2 mi South 15.0 mph - N/A   Overcast
4:00 AM 46 °F - 39 °F 69% 29.50 in 25 mi SSW 17.9 mph - -   Overcast
4:25 AM 46.4 °F 39.8 °F 39.2 °F 76% 29.47 in 6.2 mi South 16.1 mph - N/A   Overcast
4:55 AM 46.4 °F 40.1 °F 39.2 °F 76% 29.47 in 6.2 mi SSW 15.0 mph - N/A   Overcast
5:00 AM 46 °F - 38 °F 67% 29.50 in 25 mi South 15.7 mph - -   Overcast
5:25 AM 46.4 °F 39.8 °F 39.2 °F 76% 29.47 in 6.2 mi South 16.1 mph - N/A   Overcast
5:55 AM 46.4 °F 39.5 °F 39.2 °F 76% 29.47 in 6.2 mi SSW 17.3 mph - N/A   Overcast
6:00 AM 46 °F - 39 °F 69% 29.50 in 22 mi SSW 15.7 mph - -   Overcast
6:25 AM 46.4 °F 40.1 °F 39.2 °F 76% 29.47 in 6.2 mi SSW 15.0 mph - N/A   Overcast
6:55 AM 44.6 °F 38.1 °F 39.2 °F 81% 29.47 in 6.2 mi SSW 13.8 mph - N/A   Overcast
7:00 AM 46 °F - 39 °F 69% 29.51 in 25 mi SSW 15.7 mph - -   Partly Cloudy
7:25 AM 46.4 °F 39.8 °F 39.2 °F 76% 29.47 in 6.2 mi SSW 16.1 mph - N/A   Overcast
7:55 AM 44.6 °F 37.8 °F 39.2 °F 81% 29.47 in 6.2 mi SSW 15.0 mph - N/A   Overcast
8:00 AM 45 °F - 39 °F 72% 29.52 in 25 mi SSW 15.7 mph - -   Overcast
8:25 AM 44.6 °F 38.1 °F 39.2 °F 81% 29.50 in 6.2 mi SSW 13.8 mph - N/A   Overcast
8:55 AM 44.6 °F 39.2 °F 39.2 °F 81% 29.50 in 6.2 mi South 10.4 mph - N/A   Overcast
9:00 AM 45 °F - 39 °F 72% 29.52 in 22 mi South 11.2 mph - -   Mostly Cloudy
9:25 AM 44.6 °F 38.1 °F 39.2 °F 81% 29.50 in 6.2 mi SSW 13.8 mph - N/A   Overcast
9:55 AM 44.6 °F 37.8 °F 39.2 °F 81% 29.50 in 6.2 mi SSW 15.0 mph - N/A   Overcast
10:00 AM 46 °F - 39 °F 69% 29.53 in 28 mi SSW 15.7 mph - -   Overcast
10:25 AM 46.4 °F 39.8 °F 39.2 °F 76% 29.50 in 6.2 mi SSW 16.1 mph - N/A   Mostly Cloudy
10:55 AM 46.4 °F 40.1 °F 41.0 °F 81% 29.50 in 6.2 mi SSW 15.0 mph - N/A   Mostly Cloudy
11:00 AM 47 °F - 40 °F 69% 29.53 in 22 mi South 15.7 mph - -   Overcast
11:25 AM 48.2 °F - 41.0 °F 76% 29.50 in 6.2 mi SSW 17.3 mph - N/A   Mostly Cloudy
11:55 AM 48.2 °F - 39.2 °F 71% 29.50 in 6.2 mi SSW 16.1 mph - N/A   Unknown
12:00 PM 48 °F - 40 °F 64% 29.52 in 17 mi SSW 20.1 mph - -   Scattered Clouds
12:25 PM 48.2 °F - 39.2 °F 71% 29.50 in 6.2 mi SSW 17.3 mph - N/A   Scattered Clouds
12:55 PM 50.0 °F - 41.0 °F 71% 29.50 in 6.2 mi SSW 18.4 mph - N/A   Mostly Cloudy
1:00 PM 49 °F - 39 °F 59% 29.52 in 19 mi SSW 17.9 mph - -   Partly Cloudy
1:25 PM 50.0 °F - 39.2 °F 66% 29.50 in 6.2 mi SSW 19.6 mph - N/A   Scattered Clouds
1:55 PM 50.0 °F - 39.2 °F 66% 29.47 in 6.2 mi SSW 19.6 mph - N/A   Scattered Clouds
2:00 PM 49 °F - 38 °F 57% 29.50 in 18 mi SSW 20.1 mph - -   Scattered Clouds
2:25 PM 48.2 °F - 39.2 °F 71% 29.47 in 6.2 mi SSW 16.1 mph - N/A   Scattered Clouds
2:55 PM 50.0 °F - 39.2 °F 66% 29.47 in 6.2 mi SSW 17.3 mph - N/A   Mostly Cloudy
3:00 PM 50 °F - 39 °F 55% 29.50 in 22 mi SSW 17.9 mph - -   Partly Cloudy
3:25 PM 50.0 °F - 39.2 °F 66% 29.47 in 6.2 mi SSW 18.4 mph - N/A   Partly Cloudy
3:55 PM 48.2 °F - 37.4 °F 66% 29.47 in 6.2 mi SSW 15.0 mph - N/A   Partly Cloudy
4:00 PM 49 °F - 38 °F 57% 29.50 in 25 mi SSW 13.4 mph - -   Scattered Clouds
4:25 PM 48.2 °F - 39.2 °F 71% 29.50 in 6.2 mi SSW 12.7 mph - N/A   Partly Cloudy
4:55 PM 48.2 °F - 37.4 °F 66% 29.50 in 6.2 mi South 10.4 mph - N/A   Unknown
5:00 PM 48 °F - 38 °F 58% 29.52 in 28 mi South 8.9 mph - -   Mostly Cloudy
5:25 PM 48.2 °F - 37.4 °F 66% 29.50 in 6.2 mi South 10.4 mph - N/A   Unknown
5:55 PM 48.2 °F - 37.4 °F 66% 29.50 in 6.2 mi South 12.7 mph - N/A   Partly Cloudy
6:00 PM 48 °F - 38 °F 59% 29.52 in 25 mi South 11.2 mph - -   Overcast
6:25 PM 48.2 °F - 37.4 °F 66% 29.50 in 6.2 mi South 11.5 mph - N/A   Unknown
6:55 PM 48.2 °F - 39.2 °F 71% 29.50 in 6.2 mi South 12.7 mph - N/A   Unknown
7:00 PM 47 °F - 38 °F 62% 29.52 in 28 mi South 13.4 mph - -   Partly Cloudy
7:25 PM 48.2 °F - 37.4 °F 66% 29.50 in 6.2 mi South 13.8 mph - N/A   Unknown
7:55 PM 48.2 °F - 37.4 °F 66% 29.50 in 6.2 mi South 13.8 mph - N/A   Unknown
8:00 PM 47 °F - 38 °F 60%  in 28 mi South 15.7 mph - -   Overcast
8:25 PM 48.2 °F - 37.4 °F 66% 29.50 in 6.2 mi South 12.7 mph - N/A   Partly Cloudy
8:55 PM 48.2 °F - 37.4 °F 66% 29.53 in 6.2 mi South 15.0 mph - N/A   Unknown
9:00 PM 49 °F - 37 °F 54% 29.55 in 28 mi SSW 15.7 mph - -   Overcast
9:25 PM 48.2 °F - 37.4 °F 66% 29.53 in 6.2 mi South 13.8 mph - N/A   Scattered Clouds
9:55 PM 48.2 °F - 37.4 °F 66% 29.53 in 6.2 mi SSW 13.8 mph - N/A Rain Light Rain
10:00 PM 48 °F - 38 °F 59% 29.56 in 22 mi SSW 15.7 mph - - Rain Light Drizzle
10:25 PM 48.2 °F - 37.4 °F 66% 29.53 in 6.2 mi SSW 13.8 mph - N/A   Overcast
10:55 PM 46.4 °F 41.1 °F 37.4 °F 71% 29.56 in 6.2 mi SSW 11.5 mph - N/A   Overcast
11:00 PM 47 °F - 38 °F 60% 29.57 in 28 mi South 11.2 mph - - Rain Drizzle
11:25 PM 46.4 °F 41.1 °F 37.4 °F 71% 29.56 in 6.2 mi South 11.5 mph - N/A   Overcast
11:55 PM 46.4 °F 40.7 °F 37.4 °F 71% 29.56 in 6.2 mi South 12.7 mph - N/A   Overcast